Location: Tel Aviv
(32.0670°N, 34.7670°E)
Time: 18:31:05
(UTC+03:00)

Vanguard 2 Rocket - Pass Details

Date: 25 January 2022
Orbit: 553 x 3323 km, 32.9° (Epoch: 24 May)

Event Time Altitude Azimuth Distance (km) Brightness Sun altitude
Exits shadow 03:21:17 71° 271° (W) 3,273 9.2 -41.7°
Maximum altitude 03:24:32 88° 356° (N) 3,242 9.3 -41.1°
Drops below altitude 10° 03:45:02 10° 87° (E) 6,032 11.8 -36.7°
Sets 03:49:17 0° 88° (E) 6,853 12.4 -35.8°
